Back to catalog

THORAD DELTA 1 DEB

AliveLEO
NORAD 8305·DEBRIS·🇺🇸 United States

Launched Nov 15, 1974 from Vandenberg Space Force Base

Loading…

Next Passes (next 24 hours)

TLE

FreshSource: Space-Track

Epoch: Sep 14, 2026, 12:24 UTC

1 08305U 74089BN  26257.51672588 -.00000023  00000-0  13263-3 0  9992
2 08305 101.4253  95.2252 0093624  79.3563 308.9542 12.35213128336119

Track THORAD DELTA 1 DEB in real time with AllMySat

Download on the App Store